Terminal Aerodrome Forecast
Issued by NWS

Home | Current Version | Previous Version | Text Only | Print | Product List | Glossary Off
Versions: 1 2 3 4 5 6 7 8 9 10 11 12 13 14 15 16 17 18 19 20 21 22 23 24 25 26 27 28 29 30 31 32 33 34 35 36 37 38 39

000
FTUS43 KGRB 281727
TAFRHI
TAF
KRHI 281727Z 2818/2918 26007KT P6SM BKN250
      TEMPO 2819/2823 5SM -TSRA BR BKN030CB
     FM282300 VRB03KT P6SM BKN040 BKN080
     FM290600 VRB03KT 5SM BR SCT020 BKN040
     FM290800 VRB03KT 3SM BR SCT008 BKN030
      TEMPO 2908/2912 3/4SM BR BKN008
     FM291200 VRB03KT 5SM BR SCT010 BKN040=

USA.gov is the U.S. government's official web portal to all federal, state and local government web resources and services.